Weather History for Pinedale, WY

Change the Weather History Date:

Friday, January 18, 2013

  Actual Average (KBPI) Record (KBPI)
Temperature  
Mean Temperature 12 °F 11 °F  
Max Temperature 30 °F 26 °F 47 °F (1985)
Min Temperature -7 °F -4 °F -47 °F (1984)
Degree Days  
Heating Degree Days 54 54  
Month to date heating degree days 972  
Since 1 July heating degree days 5411  
Cooling Degree Days 0 0  
Month to date cooling degree days 0  
Year to date cooling degree days 0  
Moisture  
Dew Point 0 °F    
Average Humidity 77    
Maximum Humidity 92    
Minimum Humidity 51    
Precipitation  
Precipitation 0.00 in 0.01 in 0.09 in (1999)
Month to date precipitation 0.19  
Year to date precipitation 0.19  
Sea Level Pressure  
Sea Level Pressure 30.29 in    
Wind  
Wind Speed 5 mph (NW)    
Max Wind Speed 12 mph    
Max Gust Speed -    
Visibility 10 miles    
Events      
T = Trace of Precipitation, MM = Missing Value Source: NWS Daily Summary

Daily Weather History Graph

Daily Weather History Graph

Search for Another Location

Airport:

Trip Planner

Search our weather history database for the weather conditions in past years. The results will help you decide how hot, cold, wet, or windy it might be!

Date:

Astronomy

Jan. 18, 2013 Rise Set
Actual Time 7:45 AM MST 5:14 PM MST
Civil Twilight 7:14 AM MST 5:45 PM MST
Nautical Twilight 6:39 AM MST 6:20 PM MST
Astronomical Twilight 6:05 AM MST 6:54 PM MST
Moon 11:13 AM MST (1/18) 12:19 AM MST (1/18)
Length of Visible Light 10h 31m
Length of Day
9h 29m
Waxing Crescent, 48% of the Moon is Illuminated
Jan 18
Waxing Crescent
Jan 18
First Quarter
Jan 26
Full
Feb 3
Last Quarter
Feb 10
New

Hourly Weather History & Observations

Time (MST) Temp. Windchill Dew Point Humidity Pressure Visibility Wind Dir Wind Speed Gust Speed Precip Events Conditions
12:15 AM -5.8 °F -18.4 °F -7.6 °F 92% 30.35 in 10.0 mi West 5.8 mph - N/A   Scattered Clouds
12:35 AM -4.0 °F -16.3 °F -5.8 °F 92% 30.35 in 10.0 mi WNW 5.8 mph - N/A   Scattered Clouds
12:55 AM -5.8 °F -19.9 °F -7.6 °F 92% 30.34 in 10.0 mi West 6.9 mph - N/A   Scattered Clouds
1:15 AM -5.8 °F -19.9 °F -7.6 °F 92% 30.35 in 10.0 mi NW 6.9 mph - N/A   Scattered Clouds
1:35 AM -5.8 °F -14.5 °F -9.4 °F 84% 30.35 in 10.0 mi NNW 3.5 mph - N/A   Scattered Clouds
1:55 AM -4.0 °F - -7.6 °F 85% 30.35 in 10.0 mi Calm Calm - N/A   Clear
2:15 AM -4.0 °F -17.8 °F -5.8 °F 92% 30.35 in 10.0 mi WSW 6.9 mph - N/A   Clear
2:35 AM -5.8 °F -19.9 °F -9.4 °F 84% 30.34 in 10.0 mi NW 6.9 mph - N/A   Clear
2:55 AM -4.0 °F - -7.6 °F 85% 30.34 in 10.0 mi Calm Calm - N/A   Clear
3:15 AM -7.6 °F -18.8 °F -9.4 °F 92% 30.34 in 10.0 mi West 4.6 mph - N/A   Clear
3:35 AM -5.8 °F -19.9 °F -7.6 °F 92% 30.34 in 10.0 mi NW 6.9 mph - N/A   Clear
3:55 AM -4.0 °F -14.6 °F -7.6 °F 85% 30.32 in 10.0 mi NW 4.6 mph - N/A   Clear
4:15 AM -7.6 °F -20.6 °F -11.2 °F 84% 30.32 in 10.0 mi West 5.8 mph - N/A   Scattered Clouds
4:35 AM -7.6 °F -18.8 °F -11.2 °F 84% 30.30 in 10.0 mi WNW 4.6 mph - N/A   Scattered Clouds
4:55 AM -4.0 °F -17.8 °F -7.6 °F 85% 30.30 in 10.0 mi SW 6.9 mph - N/A   Scattered Clouds
5:15 AM -7.6 °F -22.1 °F -9.4 °F 92% 30.30 in 10.0 mi WNW 6.9 mph - N/A   Scattered Clouds
5:35 AM -7.6 °F -16.5 °F -11.2 °F 84% 30.30 in 10.0 mi NW 3.5 mph - N/A   Scattered Clouds
5:55 AM -5.8 °F -18.4 °F -9.4 °F 84% 30.31 in 10.0 mi NW 5.8 mph - N/A   Clear
6:15 AM -5.8 °F -21.2 °F -9.4 °F 84% 30.30 in 10.0 mi NW 8.1 mph - N/A   Clear
6:35 AM -7.6 °F -23.4 °F -11.2 °F 84% 30.30 in 10.0 mi WNW 8.1 mph - N/A   Clear
6:55 AM -5.8 °F -22.4 °F -9.4 °F 84% 30.31 in 10.0 mi WNW 9.2 mph - N/A   Clear
7:15 AM -7.6 °F -20.6 °F -11.2 °F 84% 30.31 in 10.0 mi WNW 5.8 mph - N/A   Scattered Clouds
7:35 AM -5.8 °F -16.7 °F -9.4 °F 84% 30.32 in 10.0 mi West 4.6 mph - N/A   Clear
7:55 AM -5.8 °F -19.9 °F -9.4 °F 84% 30.31 in 10.0 mi West 6.9 mph - N/A   Scattered Clouds
8:15 AM -4.0 °F -22.1 °F -7.6 °F 85% 30.31 in 10.0 mi WNW 11.5 mph - N/A   Scattered Clouds
8:35 AM -4.0 °F -16.3 °F -7.6 °F 85% 30.31 in 10.0 mi WNW 5.8 mph - N/A   Clear
8:55 AM -4.0 °F -12.4 °F -7.6 °F 85% 30.32 in 10.0 mi NW 3.5 mph - N/A   Clear
9:15 AM -0.4 °F -15.7 °F -4.0 °F 85% 30.32 in 10.0 mi NW 9.2 mph - N/A   Clear
9:35 AM 3.2 °F -11.3 °F -0.4 °F 85% 30.32 in 10.0 mi NW 9.2 mph - N/A   Clear
9:55 AM 5.0 °F -8.1 °F 1.4 °F 85% 30.32 in 10.0 mi WNW 8.1 mph - N/A   Clear
10:15 AM 10.4 °F -2.4 °F 3.2 °F 73% 30.32 in 10.0 mi NW 9.2 mph - N/A   Scattered Clouds
10:35 AM 14.0 °F 3.9 °F 5.0 °F 67% 30.32 in 10.0 mi West 6.9 mph - N/A   Mostly Cloudy
10:55 AM 15.8 °F 7.2 °F 5.0 °F 62% 30.31 in 10.0 mi WNW 5.8 mph - N/A   Scattered Clouds
11:15 AM 17.6 °F 6.4 °F 8.6 °F 68% 30.30 in 10.0 mi NW 9.2 mph - N/A   Clear
11:35 AM 19.4 °F 8.6 °F 8.6 °F 63% 30.30 in 10.0 mi WNW 9.2 mph - N/A   Clear
11:55 AM 23.0 °F 13.9 °F 10.4 °F 59% 30.29 in 10.0 mi WNW 8.1 mph - N/A   Clear
12:15 PM 23.0 °F 17.0 °F 10.4 °F 59% 30.27 in 10.0 mi WNW 4.6 mph - N/A   Clear
12:35 PM 24.8 °F 19.1 °F 12.2 °F 59% 30.27 in 10.0 mi West 4.6 mph - N/A   Clear
12:55 PM 28.4 °F 23.3 °F 12.2 °F 51% 30.26 in 10.0 mi WNW 4.6 mph - N/A   Clear
1:15 PM 28.4 °F 22.2 °F 14.0 °F 55% 30.26 in 10.0 mi West 5.8 mph - N/A   Clear
1:35 PM 30.2 °F 26.7 °F 14.0 °F 51% 30.24 in 10.0 mi West 3.5 mph - N/A   Clear
1:55 PM 28.4 °F - 14.0 °F 55% 30.24 in 10.0 mi Calm Calm - N/A   Clear
2:15 PM 30.2 °F - 14.0 °F 51% 30.24 in 10.0 mi Calm Calm - N/A   Clear
2:35 PM 30.2 °F 25.4 °F 14.0 °F 51% 30.24 in 10.0 mi NE 4.6 mph - N/A   Clear
2:55 PM 28.4 °F 21.2 °F 14.0 °F 55% 30.23 in 10.0 mi East 6.9 mph - N/A   Clear
3:15 PM 26.6 °F 22.6 °F 14.0 °F 59% 30.23 in 10.0 mi ESE 3.5 mph - N/A   Clear
3:35 PM 28.4 °F - 17.6 °F 64% 30.24 in 10.0 mi Calm Calm - N/A   Clear
3:55 PM 26.6 °F 20.0 °F 14.0 °F 59% 30.24 in 10.0 mi ENE 5.8 mph - N/A   Clear
4:15 PM 24.8 °F 20.5 °F 12.2 °F 59% 30.23 in 10.0 mi East 3.5 mph - N/A   Clear
4:35 PM 24.8 °F 20.5 °F 12.2 °F 59% 30.24 in 10.0 mi East 3.5 mph - N/A   Clear
4:55 PM 21.2 °F 12.6 °F 10.4 °F 63% 30.24 in 10.0 mi East 6.9 mph - N/A   Clear
5:15 PM 19.4 °F 11.5 °F 10.4 °F 68% 30.24 in 10.0 mi East 5.8 mph - N/A   Clear
5:35 PM 17.6 °F 10.7 °F 8.6 °F 68% 30.24 in 10.0 mi ESE 4.6 mph - N/A   Clear
5:55 PM 14.0 °F - 6.8 °F 73% 30.25 in 10.0 mi Calm Calm - N/A   Clear
6:15 PM 10.4 °F - 5.0 °F 79% 30.25 in 10.0 mi Calm Calm - N/A   Clear
6:35 PM 8.6 °F 2.0 °F 3.2 °F 79% 30.25 in 10.0 mi NNW 3.5 mph - N/A   Clear
6:55 PM 5.0 °F - -0.4 °F 78% 30.25 in 10.0 mi Calm Calm - N/A   Clear
7:15 PM 8.6 °F 2.0 °F 3.2 °F 79% 30.25 in 10.0 mi WSW 3.5 mph - N/A   Clear
7:35 PM 6.8 °F - 3.2 °F 85% 30.25 in 10.0 mi Calm Calm - N/A   Clear
7:55 PM 5.0 °F -2.1 °F -0.4 °F 78% 30.26 in 10.0 mi NNW 3.5 mph - N/A   Scattered Clouds
8:15 PM 1.4 °F -8.3 °F -2.2 °F 85% 30.25 in 10.0 mi WNW 4.6 mph - N/A   Clear
8:35 PM 3.2 °F -4.2 °F -0.4 °F 85% 30.26 in 10.0 mi North 3.5 mph - N/A   Clear
8:55 PM 3.2 °F -4.2 °F 1.4 °F 92% 30.26 in 10.0 mi NW 3.5 mph - N/A   Clear
9:15 PM 1.4 °F - -0.4 °F 92% 30.25 in 10.0 mi Calm Calm - N/A   Scattered Clouds
9:35 PM 3.2 °F -4.2 °F -0.4 °F 85% 30.23 in 10.0 mi NNE 3.5 mph - N/A   Scattered Clouds
9:55 PM 3.2 °F -4.2 °F -0.4 °F 85% 30.27 in 10.0 mi NE 3.5 mph - N/A   Clear
10:15 PM 1.4 °F -9.9 °F -0.4 °F 92% 30.26 in 10.0 mi SW 5.8 mph - N/A   Clear
10:35 PM 5.0 °F -4.1 °F 3.2 °F 92% 30.27 in 10.0 mi North 4.6 mph - N/A   Clear
10:55 PM 1.4 °F - -4.0 °F 78% 30.27 in 10.0 mi Calm Calm - N/A   Scattered Clouds
11:15 PM 1.4 °F - -2.2 °F 85% 30.27 in 10.0 mi Calm Calm - N/A   Scattered Clouds
11:35 PM -0.4 °F -10.4 °F -4.0 °F 85% 30.26 in 10.0 mi West 4.6 mph - N/A   Clear
11:55 PM 1.4 °F - -0.4 °F 92% 30.27 in 10.0 mi Calm Calm - N/A   Clear